Location: Bittkow
(50.3000°N, 19.0000°E)
Time: 03:58:40
(UTC+00:00)

COSMOS 2441 - Pass Details

Date: 19 September 2020
Orbit: 708 x 730 km, 98.1° (Epoch: 19 October)

Event Time Altitude Azimuth Distance (km) Brightness Sun altitude
Rises 02:32:35 0° 13° (NNE) 3,165 8.3 -18.3°
Reaches altitude 10° 02:34:52 10° 13° (NNE) 2,240 7.4 -18.0°
Maximum altitude 02:39:48 83° 286° (WNW) 744 4.3 -17.2°
Enters shadow 02:43:42 16° 200° (SSW) 1,829 6.1 -16.7°
